Location: Binningen
(47.7924°N, 8.7261°E)
Time: 03:15:20
(UTC+00:00)

Meteor 1-14 Rocket - Pass Details

Date: 17 May 2021
Orbit: 833 x 919 km, 81.3° (Epoch: 14 June)

Event Time Altitude Azimuth Distance (km) Brightness Sun altitude
Rises 19:24:56 0° 349° (NNW) 3,518 8.2 -4.4°
Reaches altitude 10° 19:27:26 10° 350° (N) 2,561 7.5 -4.8°
Maximum altitude 19:33:16 80° 78° (ENE) 890 4.3 -5.6°
Drops below altitude 10° 19:38:56 10° 166° (SSE) 2,484 6.2 -6.3°
Sets 19:41:19 0° 167° (SSE) 3,405 6.9 -6.6°
Enters shadow 19:41:19 - 167° (SSE) 3,409 6.9 -6.6°
